Stations météo

Publicité
Montauban, France (7540): Température de l'air & dewpoint: 06.07.2020 12:00:00 - 12.07.2020 12:00:00 (CEST)Montauban, France (7540): Température de l'air 5cm: 06.07.2020 12:00:00 - 12.07.2020 12:00:00 (CEST)Montauban, France (7540): Température de l'air -20cm & Température de l'air -100cm: 06.07.2020 12:00:00 - 12.07.2020 12:00:00 (CEST)Montauban, France (7540): Vitesse du vent & gusts: 06.07.2020 12:00:00 - 12.07.2020 12:00:00 (CEST)Montauban, France (7540): Direction du vent: 06.07.2020 12:00:00 - 12.07.2020 12:00:00 (CEST)Montauban, France (7540): reduced air pressure: 06.07.2020 12:00:00 - 12.07.2020 12:00:00 (CEST)Montauban, France (7540): visibility: 06.07.2020 12:00:00 - 12.07.2020 12:00:00 (CEST)Montauban, France (7540): Ensoleillement: 06.07.2020 12:00:00 - 12.07.2020 12:00:00 (CEST)Montauban, France (7540): Quantités de précipitations: 06.07.2020 12:00:00 - 12.07.2020 12:00:00 (CEST)
Date & Time tt [°C] td [°C] tt 5cm [°C] tt -20cm [°C] tt -100cm [°C] ff [km/h] ff [knt] fx [km/h] fx [knt] dd ppp [hPa] vv [km] sd [min] rr [mm]
12.07.2020 12:00:00 25,5 9,7 31,1 23,3 21,3 15 8 22 12 NW 1021,3 20 60 0,0
12.07.2020 11:00:00 23,7 8,5 30,4 23,4 21,3 4 2 11 6 N 1020,6 20 60 0,0
12.07.2020 10:00:00 21,3 9,2 24,2 23,5 21,3 6 3 14 8 E 1020,7 20 60 0,0
12.07.2020 09:00:00 19,2 9,7 20,9 23,7 21,3 9 5 16 9 ENE 1020,3 20 60 0,0
12.07.2020 08:00:00 16,9 8,3 13,6 23,9 21,3 4 2 8 4 E 1020,3 20 60 0,0
12.07.2020 07:00:00 14,4 7,9 11,2 24,1 21,3 3 2 13 7 E 1019,8 20 13 0,0
12.07.2020 06:00:00 14,5 7,5 10,0 24,3 21,3 5 3 8 4 E 1019,4 20 0 0,0
12.07.2020 05:00:00 15,0 7,8 9,9 24,5 21,3 5 3 8 5 E 1019,3 20 0 0,0
12.07.2020 04:00:00 15,0 8,5 10,2 24,7 21,2 2 1 7 4 E 1019,5 20 0 0,0
12.07.2020 03:00:00 15,9 9,3 10,9 24,9 21,3 3 2 9 5 E 1019,6 20 0 0,0
12.07.2020 02:00:00 17,1 10,0 12,2 25,0 21,3 3 2 9 5 E 1019,6 20 0 0,0
12.07.2020 01:00:00 17,4 10,5 12,6 25,1 21,3 0 0 5 3 N 1019,9 20 0 0,0
12.07.2020 00:00:00 19,5 10,5 13,7 25,2 21,2 0 0 6 4 N 1019,8 20 0 0,0
11.07.2020 23:00:00 21,5 9,7 16,0 25,2 21,2 5 3 11 6 WNW 1019,8 20 0 0,0
11.07.2020 22:00:00 24,3 8,7 21,0 25,2 21,3 6 3 17 9 NW 1019,2 20 12 0,0
11.07.2020 21:00:00 27,1 8,0 26,5 25,2 21,3 11 6 19 10 NNW 1018,8 20 60 0,0
11.07.2020 20:00:00 28,5 7,1 31,2 25,0 21,2 10 5 19 11 N 1018,6 20 60 0,0
11.07.2020 19:00:00 28,6 8,3 32,6 24,8 21,2 7 4 27 15 NW 1018,8 20 60 0,0
11.07.2020 18:00:00 28,4 11,5 33,4 24,7 21,2 13 7 36 20 NW 1019,2 20 60 0,0
11.07.2020 17:00:00 28,0 11,5 33,5 24,4 21,2 11 6 29 15 WNW 1019,5 20 60 0,0
11.07.2020 16:00:00 27,4 12,6 33,0 24,2 21,2 10 5 31 17 NW 1019,9 20 60 0,0
11.07.2020 15:00:00 26,3 14,1 27,5 24,1 21,2 16 9 29 15 NW 1020,5 20 42 0,0
11.07.2020 14:00:00 26,0 13,5 27,8 24,0 21,2 9 5 31 17 WNW 1020,9 20 52 0,0
11.07.2020 13:00:00 24,8 14,3 27,6 24,0 21,2 12 6 26 14 NW 1021,3 20 55 0,0
11.07.2020 12:00:00 23,3 15,6 25,9 24,0 21,2 12 7 24 13 NW 1021,3 20 56 0,0
11.07.2020 11:00:00 21,7 15,3 23,3 24,1 21,2 12 7 21 12 W 1021,7 20 12 0,0
11.07.2020 10:00:00 20,6 14,9 21,7 24,2 21,2 11 6 26 14 NNW 1021,7 20 0 0,0
11.07.2020 09:00:00 19,9 15,1 19,4 24,3 21,2 14 7 22 12 WNW 1021,2 20 2 0,0
11.07.2020 08:00:00 19,2 15,1 18,6 24,4 21,2 12 6 19 10 NW 1021,1 20 0 0,0
11.07.2020 07:00:00 18,8 14,9 18,5 24,6 21,2 11 6 18 10 WNW 1020,7 20 0 0,0
11.07.2020 06:00:00 19,2 14,5 18,8 24,7 21,1 10 5 18 10 WNW 1020,4 20 0 0,0
11.07.2020 05:00:00 19,5 14,3 19,0 24,8 21,1 12 6 18 10 WNW 1020,2 20 0 0,0
11.07.2020 04:00:00 19,8 14,4 19,2 24,9 21,1 11 6 18 10 WNW 1020,0 20 0 0,0
11.07.2020 03:00:00 20,4 14,5 19,7 25,1 21,1 10 5 22 12 WNW 1020,2 20 0 0,0
11.07.2020 02:00:00 20,8 15,8 20,0 25,2 21,1 13 7 23 13 NW 1020,0 20 0 0,0
11.07.2020 01:00:00 20,7 17,7 20,1 25,3 21,1 9 5 14 8 W 1019,7 20 0 0,0
11.07.2020 00:00:00 20,7 17,5 19,5 25,3 21,1 8 5 14 8 WNW 1019,6 20 0 0,0
10.07.2020 23:00:00 21,0 17,6 19,7 25,4 21,1 9 5 14 8 WNW 1019,1 20 0 0,0
10.07.2020 22:00:00 21,0 18,4 19,2 25,4 21,1 7 4 31 17 NW 1018,7 20 0 3,0
10.07.2020 21:00:00 24,1 15,6 23,8 25,3 21,1 15 8 24 13 NW 1018,6 20 0 0,0
10.07.2020 20:00:00 24,7 15,6 24,7 25,2 21,1 18 10 30 16 NW 1018,3 20 0 0,0
10.07.2020 19:00:00 25,8 15,5 26,6 25,0 21,1 16 9 30 16 NNW 1017,6 20 11 0,0
10.07.2020 18:00:00 27,8 15,1 31,1 24,8 21,1 15 8 35 19 NNW 1016,9 20 58 0,0
10.07.2020 17:00:00 27,8 14,1 32,9 24,6 21,1 13 7 32 17 NW 1017,1 20 60 0,0
10.07.2020 16:00:00 27,5 13,8 33,4 24,3 21,1 13 7 32 17 NW 1017,4 20 60 0,0
10.07.2020 15:00:00 26,4 13,8 32,5 24,2 21,0 15 8 27 15 NW 1018,0 20 60 0,0
10.07.2020 14:00:00 25,8 15,8 31,5 24,0 21,0 13 7 27 15 NNW 1018,1 20 60 0,0
10.07.2020 13:00:00 24,9 15,8 29,1 24,0 21,0 12 7 24 13 NNW 1018,5 20 60 0,0
10.07.2020 12:00:00 23,3 15,6 28,5 24,0 21,0 8 5 21 11 NNW 1019,0 20 60 0,0
10.07.2020 11:00:00 22,4 16,2 24,3 24,1 21,0 10 5 21 11 NNW 1019,0 20 42 0,0
10.07.2020 10:00:00 20,5 15,7 20,8 24,2 21,0 10 6 18 10 NW 1019,4 20 3 0,0
10.07.2020 09:00:00 19,3 15,6 19,6 24,3 21,0 13 7 25 14 NW 1019,1 20 0 0,0
10.07.2020 08:00:00 18,6 16,0 18,2 24,5 21,0 13 7 24 13 WNW 1018,6 20 24 0,0
10.07.2020 07:00:00 18,3 15,9 17,9 24,6 21,0 11 6 27 15 WNW 1018,4 20 14 0,0
10.07.2020 06:00:00 18,9 16,1 18,3 24,7 21,0 16 9 26 14 WNW 1018,0 20 0 0,0
10.07.2020 05:00:00 20,0 16,0 19,1 24,8 21,0 13 7 22 12 WNW 1017,5 20 0 0,0
10.07.2020 04:00:00 21,2 15,5 20,2 24,9 21,0 13 7 27 14 WNW 1017,4 20 0 0,0
10.07.2020 03:00:00 22,5 14,9 21,0 25,0 21,0 11 6 18 10 W 1017,2 20 0 0,0
10.07.2020 02:00:00 23,3 16,3 21,7 25,1 21,0 9 5 24 13 NW 1016,5 20 0 0,0
10.07.2020 01:00:00 24,2 17,7 21,7 25,2 21,0 11 6 19 10 WNW 1016,5 20 0 0,0
10.07.2020 00:00:00 23,7 16,5 19,0 25,2 21,0 7 4 15 8 W 1016,2 20 0 0,0
09.07.2020 23:00:00 23,8 15,3 19,8 25,2 21,0 3 2 5 3 S 1015,8 20 0 0,0
09.07.2020 22:00:00 26,6 14,4 21,6 25,1 21,0 3 2 10 5 ESE 1015,4 6 13 0,0
09.07.2020 21:00:00 30,4 13,7 28,9 25,0 21,0 7 4 17 9 NW 1015,4 20 60 0,0
09.07.2020 20:00:00 31,9 13,2 33,4 24,8 21,0 12 7 21 11 NNW 1014,9 20 60 0,0
09.07.2020 19:00:00 32,4 13,1 35,6 24,6 21,0 12 6 19 10 NW 1015,1 20 60 0,0
09.07.2020 18:00:00 32,9 13,5 37,1 24,3 21,0 9 5 19 11 W 1015,7 20 60 0,0
09.07.2020 17:00:00 32,3 11,5 38,2 24,1 21,0 6 3 23 13 NNW 1016,0 20 60 0,0
09.07.2020 16:00:00 32,2 11,9 38,1 23,8 21,0 8 4 25 14 WNW 1016,1 20 60 0,0
09.07.2020 15:00:00 31,6 12,4 36,9 23,6 21,0 5 3 19 11 NNW 1016,5 20 60 0,0
09.07.2020 14:00:00 30,8 12,7 36,0 23,4 21,0 9 5 19 11 NW 1017,1 20 60 0,0
09.07.2020 13:00:00 29,4 14,4 35,4 23,3 20,9 8 5 16 9 WNW 1017,4 20 60 0,0
09.07.2020 12:00:00 27,6 13,9 33,9 23,2 20,9 6 4 11 6 W 1017,5 20 60 0,0
09.07.2020 11:00:00 25,6 15,3 30,0 23,3 20,9 2 1 12 6 S 1017,6 20 60 0,0
09.07.2020 10:00:00 23,4 14,7 27,3 23,4 20,9 3 2 8 5 N 1017,8 20 60 0,0
09.07.2020 09:00:00 21,6 14,0 21,3 23,6 20,9 0 0 12 6 N 1017,4 20 60 0,0
09.07.2020 08:00:00 16,8 13,7 15,0 23,7 20,9 4 2 16 9 SE 1017,4 20 60 0,0
09.07.2020 07:00:00 15,8 12,7 11,5 23,9 20,9 2 1 6 3 SE 1017,2 20 15 0,0
09.07.2020 06:00:00 14,3 12,0 11,6 24,1 21,0 0 0 7 4 N 1016,9 20 0 0,0
09.07.2020 05:00:00 15,7 12,4 12,2 24,2 20,9 0 0 4 2 N 1016,7 20 0 0,0
09.07.2020 04:00:00 15,9 12,1 12,4 24,4 20,9 2 1 3 2 S 1017,0 20 0 0,0
09.07.2020 03:00:00 16,5 12,6 12,7 24,5 20,9 0 0 5 3 N 1016,9 20 0 0,0
09.07.2020 02:00:00 17,3 13,0 13,3 24,7 20,9 0 0 3 2 N 1017,0 20 0 0,0
09.07.2020 01:00:00 18,3 12,9 14,4 24,7 20,9 3 2 4 2 S 1016,9 20 0 0,0
09.07.2020 00:00:00 19,8 13,3 15,2 24,8 20,9 3 1 4 2 SE 1016,3 20 0 0,0
08.07.2020 23:00:00 21,7 13,3 16,6 24,8 20,9 3 2 5 3 SE 1016,1 20 0 0,0
08.07.2020 22:00:00 26,4 11,3 21,0 24,7 20,9 5 3 11 6 WSW 1015,6 2,2 14 0,0
08.07.2020 21:00:00 29,0 10,6 28,7 24,6 20,9 5 3 9 5 WSW 1015,3 20 60 0,0
08.07.2020 20:00:00 30,0 11,5 35,2 24,3 20,9 2 1 12 7 ESE 1014,8 20 60 0,0
08.07.2020 19:00:00 30,6 10,0 35,3 24,1 20,9 6 4 17 9 ENE 1015,0 20 60 0,0
08.07.2020 18:00:00 30,4 9,8 36,9 23,7 20,9 7 4 21 12 NNE 1015,9 20 60 0,0
08.07.2020 17:00:00 30,2 10,2 37,2 23,5 20,9 5 3 24 13 NNE 1016,6 20 60 0,0
08.07.2020 16:00:00 29,6 10,7 36,6 23,2 20,9 6 3 16 9 ENE 1016,9 20 60 0,0
08.07.2020 15:00:00 28,9 11,5 35,8 23,0 20,9 7 4 16 9 ESE 1017,4 20 60 0,0
08.07.2020 14:00:00 27,7 10,8 35,9 22,8 20,9 6 3 13 7 SSE 1017,8 20 60 0,0
08.07.2020 13:00:00 26,6 13,3 32,4 22,7 20,9 3 2 15 8 SE 1018,2 20 60 0,0
08.07.2020 12:00:00 24,9 11,8 30,8 22,7 20,9 4 2 13 7 NW 1018,4 20 60 0,0
08.07.2020 11:00:00 23,1 12,7 29,2 22,7 20,9 5 3 11 6 W 1018,5 20 60 0,0
08.07.2020 10:00:00 20,7 12,7 24,5 22,9 20,9 3 2 9 5 SW 1018,5 20 60 0,0
08.07.2020 09:00:00 18,0 11,5 22,9 23,0 20,9 2 1 7 4 WNW 1018,5 20 60 0,0
08.07.2020 08:00:00 15,9 11,7 13,1 23,1 20,9 0 0 6 3 N 1018,2 20 60 0,0
08.07.2020 07:00:00 13,3 10,8 8,6 23,3 20,9 0 0 5 3 N 1018,2 20 16 0,0
08.07.2020 06:00:00 12,3 9,7 8,7 23,5 20,9 0 0 4 2 N 1018,0 20 0 0,0
08.07.2020 05:00:00 13,5 10,1 9,4 23,7 20,9 2 1 5 3 ENE 1017,9 20 0 0,0
08.07.2020 04:00:00 15,0 10,4 10,3 23,8 20,9 2 1 4 2 E 1017,8 20 0 0,0
08.07.2020 03:00:00 15,1 9,9 11,5 24,0 20,9 0 0 4 2 N 1018,2 20 0 0,0
08.07.2020 02:00:00 18,3 10,1 13,3 24,1 20,9 2 1 12 7 NW 1018,3 20 0 0,0
08.07.2020 01:00:00 18,9 10,5 13,3 24,1 20,9 5 3 9 5 W 1018,5 20 0 0,0
08.07.2020 00:00:00 20,4 10,2 17,3 24,2 20,9 7 4 13 7 WNW 1018,4 20 0 0,0
07.07.2020 23:00:00 21,2 10,1 18,4 24,2 20,9 7 4 13 7 WNW 1018,3 20 0 0,0
07.07.2020 22:00:00 22,8 9,6 20,4 24,2 20,9 9 5 16 9 WNW 1017,9 20 0 0,0
07.07.2020 21:00:00 24,8 9,1 22,5 24,1 20,9 9 5 19 11 WNW 1017,3 20 34 0,0
07.07.2020 20:00:00 26,9 6,8 29,6 23,9 20,9 12 7 26 14 NNW 1017,2 20 60 0,0
07.07.2020 19:00:00 27,4 6,7 31,7 23,7 20,9 9 5 25 13 NNW 1017,3 20 60 0,0
07.07.2020 18:00:00 27,2 6,6 31,8 23,4 20,9 10 5 30 16 NNW 1017,8 20 60 0,0
07.07.2020 17:00:00 27,1 7,5 33,6 23,2 20,9 13 7 28 15 NNW 1018,3 20 60 0,0
07.07.2020 16:00:00 26,3 7,3 33,6 23,0 20,9 13 7 27 15 NNE 1018,6 20 60 0,0
07.07.2020 15:00:00 25,4 6,6 31,8 22,7 20,9 9 5 29 15 NW 1019,0 20 60 0,0
07.07.2020 14:00:00 24,7 6,4 30,0 22,6 20,9 14 7 35 19 N 1019,5 20 60 0,0
07.07.2020 13:00:00 23,7 6,9 30,1 22,5 20,9 16 9 34 18 NW 1020,0 20 60 0,0
07.07.2020 12:00:00 22,9 8,9 27,5 22,5 20,9 12 7 26 14 NW 1020,3 20 60 0,0
07.07.2020 11:00:00 20,7 9,9 25,7 22,6 20,9 9 5 16 9 WNW 1020,6 20 60 0,0
07.07.2020 10:00:00 19,0 10,5 23,4 22,7 20,9 6 3 13 7 NW 1021,1 20 60 0,0
07.07.2020 09:00:00 16,5 10,1 18,9 22,9 20,8 6 3 12 6 WNW 1021,3 20 60 0,0
07.07.2020 08:00:00 15,0 11,0 13,4 23,0 20,8 9 5 14 8 WNW 1021,4 20 60 0,0
07.07.2020 07:00:00 13,1 10,8 8,6 23,2 20,9 5 3 8 4 W 1021,2 20 16 0,0
07.07.2020 06:00:00 13,3 9,2 9,5 23,4 20,9 4 2 7 4 WNW 1021,1 20 0 0,0
07.07.2020 05:00:00 14,2 9,2 11,6 23,5 20,9 5 3 9 5 W 1021,1 20 0 0,0
07.07.2020 04:00:00 15,0 9,1 11,9 23,6 20,8 6 3 10 5 WNW 1021,4 20 0 0,0
07.07.2020 03:00:00 15,6 9,3 12,4 23,8 20,8 4 2 11 6 WNW 1021,6 20 0 0,0
07.07.2020 02:00:00 16,3 9,2 13,0 23,9 20,9 5 3 10 6 WNW 1021,7 20 0 0,0
07.07.2020 01:00:00 18,4 9,5 16,0 24,0 20,8 5 3 13 7 NNW 1021,8 20 0 0,0
07.07.2020 00:00:00 19,0 10,3 16,7 24,1 20,8 9 5 13 7 NW 1021,9 20 0 0,0
06.07.2020 23:00:00 20,2 10,3 18,2 24,1 20,8 10 5 15 8 NW 1021,9 20 0 0,0
06.07.2020 22:00:00 21,8 9,7 19,6 24,1 20,8 10 5 22 12 NW 1021,2 20 14 0,0
06.07.2020 21:00:00 23,9 9,8 23,6 24,1 20,8 15 8 31 17 NW 1020,7 20 60 0,0
06.07.2020 20:00:00 25,1 10,5 27,3 23,9 20,8 18 10 32 17 NW 1020,6 20 60 0,0
06.07.2020 19:00:00 25,6 11,4 29,1 23,8 20,8 18 10 31 17 NW 1020,6 20 60 0,0
06.07.2020 18:00:00 25,8 10,8 30,3 23,6 20,8 19 11 34 19 NW 1020,9 20 60 0,0
06.07.2020 17:00:00 25,4 11,6 30,5 23,5 20,8 18 10 34 19 NNW 1021,1 20 60 0,0
06.07.2020 16:00:00 24,8 12,1 29,2 23,4 20,8 19 10 37 20 NW 1021,3 20 57 0,0
06.07.2020 15:00:00 24,3 15,2 25,2 23,2 20,7 20 11 36 19 NW 1021,4 20 43 0,0
06.07.2020 14:00:00 22,9 16,0 22,9 23,3 20,8 22 12 38 21 NW 1021,6 20 12 0,0
06.07.2020 13:00:00 22,1 15,7 24,0 23,3 20,8 17 9 26 14 NW 1022,0 20 1 0,0
06.07.2020 12:00:00 22,1 15,4 24,9 23,3 20,8 12 6 25 14 NNW 1021,9 20 6 0,0

tt = Température de l'air
td = dewpoint
tt 5cm = Température de l'air 5cm
tt -20cm = Température de l'air -20cm
tt -100cm = Température de l'air -100cm
ff = Vitesse du vent
fx = gusts
dd = Direction du vent
ppp = reduced air pressure
vv = visibility
sd = Ensoleillement
rr = Quantités de précipitations

stations d'obs. à proximité